User: anonymous   Login
Location: Unspecified
(0.0000°N, 0.0000°E)
Time: 23:46:16
(UTC+01:00)
Language:

Milstar 3 Cent rocket - Orbit

View from above orbital plane
View from above orbital plane
View from above satellite
View from above satellite

Ground track
Ground track

The orbit data is extracted from the following two-line orbital elements,

1 25725U 99023B   17047.95860917 0.00000000  00000-0  00000-0 0    01
2 25725  28.3141  87.0810 2384418 213.9474 146.0520  9.67226005    01
Epoch (UTC): 16 February 2017 23:00:23
Eccentricity: 0.2384418
inclination: 28.3141°
perigee height: 708 km
apogee height: 5145 km
right ascension of ascending node: 87.0810°
argument of perigee: 213.9474°
revolutions per day: 9.67226005
mean anomaly at epoch: 146.0520°
orbit number at epoch: 0

The dashed part of the orbit path shows where the satellite is in the earth's shadow,  

DLR